Airfield :
LOGIN :

Register | Disclaimer

   EN    FR    IT 

 










Legend :    VFR   Marginal VFR   IFR   Intensive IFR   Very Intensive IFR
Visi :
Ceiling :
>= 8 km
>= 3000ft
5 to 8 km
1000 to 3000 ft
1500m to 5 km
500 to 1000 ft
800 to 1500m
200 to 500 ft
< 800m
< 200 ft
Symbols :   Thunderstorms  Fog  Heavy snow  Heavy precipitations  Wind > 20 kt
SIGMETs :     Misc.  Thunderstorms  Icing  Turbulence  Mountain Waves  Volcanic Ashes






- Airport Elevation : 272 ft
- IATA code : MXN


LFRU - Morlaix-Ploujean

CURRENT METAR :
  • 101030Z AUTO 03011KT 9999 BKN014 BKN019 BKN030 08/06 Q1010

EXPIRED METARs :
  • 101000Z AUTO 03011KT 9999 FEW015 SCT021 OVC036 08/06 Q1011
  • 100930Z AUTO 04009KT 9999 BKN022 OVC030 08/06 Q1010
  • 100900Z AUTO 04006KT 9999 BKN015 OVC023 07/06 Q1010
  • 100830Z AUTO 04008KT 9999 FEW011 OVC020 07/06 Q1010

TAF N/A



MET'MAP, your aeronautical weather chart ! - Copyright ORBIFLY December 2007 - Disclaimer

ORBIFLY MET'MAP TEAM :

Programming & Development : Alexandra Zaïnal
Concept & original design : Baudouin d'Aumeries
Assistance for programming : Marc-Olivier Méhu
Technical & hardware support : Manuel Goepfert

Contact : metmap@orbifly.com




SOURCES & CREDITS :

   NOAA